Location: ??????
(55.7522°N, 37.6156°E)
Time: 18:27:33
(UTC+00:00)

Cosmos 2227 Rocket - Pass Details

Date: 14 June 2025
Orbit: 836 x 845 km, 71.0° (Epoch: 12 July)

Event Time Altitude Azimuth Distance (km) Brightness Sun altitude
Rises 19:56:01 0° 221° (SW) 3,383 5.1 -8.5°
Reaches altitude 10° 19:58:27 10° 223° (SW) 2,453 4.4 -8.6°
Maximum altitude 20:04:05 70° 308° (NW) 895 2.6 -8.9°
Drops below altitude 10° 20:09:45 10° 32° (NNE) 2,473 5.2 -9.1°
Sets 20:12:14 0° 35° (NE) 3,413 5.9 -9.2°
